Weather History for College Park, MD

Change the Weather History Date:

Thursday, March 7, 2013

  Actual Average Record
Temperature  
Mean Temperature 45 °F -  
Max Temperature 52 °F 50 °F 75 °F (1961)
Min Temperature 38 °F 32 °F 12 °F (1960)
Degree Days  
Heating Degree Days 20    
Moisture  
Dew Point 30 °F    
Average Humidity 58    
Maximum Humidity 75    
Minimum Humidity 38    
Precipitation  
Precipitation 0.00 in - - ()
Sea Level Pressure  
Sea Level Pressure 30.08 in    
Wind  
Wind Speed 9 mph (NNW)    
Max Wind Speed 20 mph    
Max Gust Speed 29 mph    
Visibility 10 miles    
Events      
Averages and records for this station are not official NWS values.
T = Trace of Precipitation, MM = Missing Value Source: NWS Daily Summary

Daily Weather History Graph

Daily Weather History Graph

Search for Another Location

Airport:

Trip Planner

Search our weather history database for the weather conditions in past years. The results will help you decide how hot, cold, wet, or windy it might be!

Date:

Astronomy

Mar. 07, 2013 Rise Set
Actual Time 6:30 AM EST 6:06 PM EST
Civil Twilight 6:04 AM EST 6:33 PM EST
Nautical Twilight 5:33 AM EST 7:04 PM EST
Astronomical Twilight 5:02 AM EST 7:35 PM EST
Moon 3:27 AM EST (3/7) 1:54 PM EST (3/7)
Length of Visible Light 12h 29m
Length of Day
11h 35m
Waning Crescent, 20% of the Moon is Illuminated
Mar 7
Waning Crescent
Mar 11
New
Mar 19
First Quarter
Mar 27
Full
Apr 3
Last Quarter

Hourly Weather History & Observations

Time (EST) Temp. Windchill Dew Point Humidity Pressure Visibility Wind Dir Wind Speed Gust Speed Precip Events Conditions
12:05 AM 41.9 °F 36.3 °F 33.1 °F 71% 29.99 in 10.0 mi NNW 9.2 mph - N/A   Overcast
12:25 AM 41.9 °F 36.9 °F 33.3 °F 71% 30.00 in 10.0 mi NW 8.1 mph - N/A   Overcast
12:45 AM 41.5 °F 36.4 °F 33.8 °F 74% 30.00 in 10.0 mi NNW 8.1 mph - N/A   Overcast
1:05 AM 41.4 °F 36.8 °F 33.8 °F 74% 30.00 in 10.0 mi NNW 6.9 mph - N/A   Overcast
1:25 AM 41.2 °F 36.0 °F 33.4 °F 74% 30.00 in 10.0 mi NNW 8.1 mph - N/A   Overcast
1:45 AM 41.4 °F 36.2 °F 33.1 °F 72% 30.00 in 10.0 mi NW 8.1 mph - N/A   Overcast
2:05 AM 41.4 °F 37.6 °F 32.9 °F 72% 30.01 in 10.0 mi NNW 5.8 mph - N/A   Overcast
2:25 AM 41.4 °F 36.8 °F 32.4 °F 70% 30.00 in 10.0 mi NNW 6.9 mph - N/A   Overcast
2:45 AM 40.5 °F 34.6 °F 32.0 °F 72% 30.01 in 10.0 mi NNW 9.2 mph - N/A   Mostly Cloudy
3:05 AM 40.1 °F 36.1 °F 32.0 °F 73% 30.01 in 10.0 mi NNW 5.8 mph - N/A   Clear
3:25 AM 39.4 °F 33.8 °F 32.0 °F 75% 30.02 in 10.0 mi NNW 8.1 mph - N/A   Scattered Clouds
4:05 AM 39.2 °F 33.6 °F 31.6 °F 74% 30.03 in 10.0 mi NW 8.1 mph - N/A   Scattered Clouds
4:25 AM 39.4 °F 33.8 °F 31.3 °F 73% 30.04 in 10.0 mi NNW 8.1 mph - N/A   Mostly Cloudy
4:45 AM 39.2 °F 33.6 °F 30.9 °F 72% 30.04 in 10.0 mi NNW 8.1 mph - N/A   Scattered Clouds
5:05 AM 39.2 °F 35.9 °F 30.4 °F 71% 30.04 in 10.0 mi NNW 4.6 mph - N/A   Clear
5:25 AM 39.2 °F 35.0 °F 30.2 °F 70% 30.05 in 10.0 mi NNW 5.8 mph - N/A   Clear
5:45 AM 38.8 °F 33.8 °F 30.6 °F 72% 30.06 in 10.0 mi NW 6.9 mph - N/A   Scattered Clouds
6:05 AM 39.2 °F 35.0 °F 30.9 °F 72% 30.06 in 10.0 mi NNW 5.8 mph - N/A   Overcast
6:25 AM 39.2 °F 37.0 °F 31.1 °F 73% 30.06 in 10.0 mi NNW 3.5 mph - N/A   Overcast
6:45 AM 38.5 °F 35.0 °F 31.1 °F 75% 30.06 in 10.0 mi NNW 4.6 mph - N/A   Overcast
7:05 AM 39.6 °F 36.3 °F 30.7 °F 71% 30.07 in 10.0 mi NNW 4.6 mph - N/A   Overcast
7:25 AM 41.0 °F 37.1 °F 30.0 °F 65% 30.07 in 10.0 mi NNW 5.8 mph - N/A   Overcast
7:45 AM 41.0 °F 35.2 °F 29.3 °F 63% 30.08 in 10.0 mi NNW 9.2 mph - N/A   Scattered Clouds
8:05 AM 41.7 °F 37.3 °F 29.5 °F 62% 30.09 in 10.0 mi NNW 6.9 mph - N/A   Scattered Clouds
8:25 AM 43.2 °F 37.9 °F 29.3 °F 58% 30.09 in 10.0 mi NNW 9.2 mph - N/A   Scattered Clouds
8:45 AM 43.7 °F 38.1 °F 28.6 °F 55% 30.10 in 10.0 mi North 10.4 mph 18.4 mph N/A   Scattered Clouds
9:05 AM 43.9 °F 37.5 °F 27.5 °F 53% 30.10 in 10.0 mi North 12.7 mph 24.2 mph N/A   Scattered Clouds
9:25 AM 44.6 °F 37.2 °F 27.1 °F 50% 30.11 in 10.0 mi NW 17.3 mph 28.8 mph N/A   Scattered Clouds
9:45 AM 45.5 °F 38.3 °F 27.7 °F 50% 30.11 in 10.0 mi NNW 17.3 mph 25.3 mph N/A   Scattered Clouds
10:05 AM 45.7 °F 39.8 °F 28.2 °F 51% 30.11 in 10.0 mi North 12.7 mph 25.3 mph N/A   Scattered Clouds
10:25 AM 46.8 °F - 28.9 °F 50% 30.11 in 10.0 mi North 12.7 mph 20.7 mph N/A   Scattered Clouds
10:45 AM 46.8 °F - 28.4 °F 49% 30.11 in 10.0 mi NNW 19.6 mph 25.3 mph N/A   Scattered Clouds
11:05 AM 47.5 °F - 28.8 °F 48% 30.11 in 10.0 mi North 16.1 mph 26.5 mph N/A   Clear
11:25 AM 47.8 °F - 28.0 °F 46% 30.11 in 10.0 mi NNW 13.8 mph 21.9 mph N/A   Clear
11:45 AM 48.6 °F - 27.7 °F 44% 30.10 in 10.0 mi NNW 17.3 mph 27.6 mph N/A   Clear
12:05 PM 48.7 °F - 27.5 °F 44% 30.10 in 10.0 mi NNW 16.1 mph 24.2 mph N/A   Scattered Clouds
12:25 PM 50.0 °F - 27.9 °F 42% 30.10 in 10.0 mi NNW 17.3 mph 23.0 mph N/A   Scattered Clouds
12:45 PM 50.5 °F - 27.5 °F 41% 30.09 in 10.0 mi NNW 12.7 mph 25.3 mph N/A   Scattered Clouds
1:05 PM 50.9 °F - 27.3 °F 40% 30.09 in 10.0 mi NNW 10.4 mph 26.5 mph N/A   Scattered Clouds
1:25 PM 51.6 °F - 28.0 °F 40% 30.08 in 10.0 mi NNW 15.0 mph 20.7 mph N/A   Scattered Clouds
1:45 PM 51.6 °F - 27.5 °F 39% 30.08 in 10.0 mi NNW 8.1 mph 21.9 mph N/A   Mostly Cloudy
2:05 PM 49.5 °F - 26.8 °F 41% 30.08 in 10.0 mi NNW 15.0 mph 20.7 mph N/A   Mostly Cloudy
2:25 PM 52.0 °F - 27.3 °F 39% 30.07 in 10.0 mi NW 11.5 mph 23.0 mph N/A   Mostly Cloudy
2:45 PM 51.6 °F - 27.1 °F 39% 30.08 in 10.0 mi North 12.7 mph 26.5 mph N/A   Mostly Cloudy
3:05 PM 51.6 °F - 26.8 °F 38% 30.08 in 10.0 mi NNW 11.5 mph 21.9 mph N/A   Mostly Cloudy
3:25 PM 49.3 °F - 26.4 °F 41% 30.08 in 10.0 mi NNW 12.7 mph 20.7 mph N/A   Scattered Clouds
3:45 PM 50.0 °F - 27.1 °F 41% 30.08 in 10.0 mi NNW 11.5 mph 19.6 mph N/A   Mostly Cloudy
4:05 PM 49.6 °F - 27.0 °F 41% 30.08 in 10.0 mi NNW 12.7 mph 23.0 mph N/A   Scattered Clouds
4:25 PM 50.9 °F - 27.3 °F 40% 30.08 in 10.0 mi NNW 10.4 mph 19.6 mph N/A   Scattered Clouds
5:10 PM 50.9 °F - 28.2 °F 42% 30.09 in 10.0 mi North 9.2 mph 19.6 mph N/A   Mostly Cloudy
5:30 PM 49.3 °F - 28.0 °F 44% 30.09 in 10.0 mi NNW 6.9 mph - N/A   Overcast
5:50 PM 48.9 °F - 28.6 °F 45% 30.10 in 10.0 mi NW 9.2 mph 24.2 mph N/A   Overcast
6:10 PM 47.7 °F - 29.1 °F 49% 30.11 in 10.0 mi NW 9.2 mph 17.3 mph N/A   Scattered Clouds
6:30 PM 47.3 °F - 29.5 °F 50% 30.12 in 10.0 mi NNW 9.2 mph - N/A   Scattered Clouds
6:50 PM 46.9 °F - 29.8 °F 51% 30.13 in 10.0 mi NW 6.9 mph - N/A   Scattered Clouds
8:50 PM 44.8 °F 41.0 °F 31.3 °F 59% 30.15 in 10.0 mi NW 6.9 mph - N/A   Mostly Cloudy
9:10 PM 44.6 °F 41.4 °F 31.1 °F 59% 30.15 in 10.0 mi NW 5.8 mph - N/A   Mostly Cloudy
9:30 PM 43.7 °F 39.7 °F 31.6 °F 63% 30.15 in 10.0 mi North 6.9 mph - N/A   Scattered Clouds
9:50 PM 42.3 °F 40.5 °F 31.5 °F 66% 30.15 in 10.0 mi NNW 3.5 mph - N/A   Scattered Clouds
10:10 PM 42.3 °F 38.6 °F 31.8 °F 67% 30.15 in 10.0 mi NW 5.8 mph - N/A   Scattered Clouds
10:30 PM 42.6 °F 39.0 °F 31.8 °F 66% 30.15 in 10.0 mi NW 5.8 mph - N/A   Mostly Cloudy
10:50 PM 41.9 °F 38.2 °F 32.0 °F 68% 30.15 in 10.0 mi NNW 5.8 mph - N/A   Scattered Clouds
11:10 PM 41.9 °F 37.5 °F 32.0 °F 68% 30.15 in 10.0 mi NW 6.9 mph - N/A   Clear
11:30 PM 41.9 °F 38.2 °F 32.0 °F 68% 30.15 in 10.0 mi NW 5.8 mph - N/A   Clear
11:50 PM 41.4 °F 36.8 °F 31.6 °F 68% 30.15 in 10.0 mi NW 6.9 mph - N/A   Clear